| time (UTC) | temp F | wind direction | speed MPH | gust MPH | rain 1hr in | rain 24hr in | rain mn in | humidity % | barometer mb |
| 20260904091017 | 66 | 22 | 2.0 | 5.0 | 0.00 | 0.11 | 0.11 | 76 | 1010.3 |
| 20260904090515 | 66 | 17 | 1.0 | 5.0 | 0.00 | 0.11 | 0.11 | 76 | 1010.2 |
| 20260904090034 | 66 | 17 | 2.0 | 5.0 | 0.00 | 0.11 | 0.11 | 76 | 1010.2 |
| 20260904085515 | 66 | 0 | 1.0 | 6.0 | 0.00 | 0.11 | 0.11 | 76 | 1010.2 |
| 20260904085016 | 66 | 17 | 2.0 | 7.0 | 0.00 | 0.11 | 0.11 | 76 | 1010.2 |
| 20260904084535 | 66 | 22 | 1.0 | 8.0 | 0.00 | 0.11 | 0.11 | 76 | 1010.2 |
| 20260904084019 | 66 | 0 | 1.0 | 8.0 | 0.00 | 0.11 | 0.11 | 76 | 1010.4 |
| 20260904083631 | 66 | 18 | 1.0 | 8.0 | 0.00 | 0.11 | 0.11 | 76 | 1010.3 |
| 20260904065524 | 69 | 348 | 2.0 | 5.0 | 0.00 | 0.10 | 0.10 | 72 | 1010.7 |
| 20260904065020 | 69 | 346 | 2.0 | 6.0 | 0.00 | 0.10 | 0.10 | 72 | 1010.6 |
| 20260904064537 | 69 | 350 | 1.0 | 6.0 | 0.00 | 0.10 | 0.10 | 72 | 1010.8 |
| 20260904064016 | 69 | 0 | 1.0 | 6.0 | 0.00 | 0.10 | 0.10 | 71 | 1010.9 |
| 20260904063516 | 69 | 13 | 2.0 | 9.0 | 0.00 | 0.10 | 0.10 | 70 | 1011.0 |
| 20260904063032 | 69 | 355 | 2.0 | 9.0 | 0.00 | 0.10 | 0.10 | 69 | 1010.9 |
| 20260904062521 | 70 | 9 | 3.0 | 9.0 | 0.00 | 0.10 | 0.10 | 69 | 1011.0 |
| 20260904062018 | 70 | 26 | 3.0 | 10.0 | 0.00 | 0.10 | 0.10 | 69 | 1010.9 |
| 20260904061539 | 70 | 43 | 2.0 | 10.0 | 0.00 | 0.10 | 0.10 | 69 | 1011.0 |
| 20260904061018 | 70 | 35 | 2.0 | 8.0 | 0.00 | 0.10 | 0.10 | 69 | 1011.0 |
| 20260904060515 | 70 | 322 | 2.0 | 8.0 | 0.00 | 0.10 | 0.10 | 69 | 1011.1 |
| 20260904060035 | 69 | 35 | 1.0 | 8.0 | 0.00 | 0.10 | 0.10 | 69 | 1011.2 |
| 20260904055518 | 69 | 29 | 2.0 | 8.0 | 0.00 | 0.10 | 0.10 | 69 | 1011.2 |
| 20260904055020 | 69 | 360 | 2.0 | 8.0 | 0.00 | 0.10 | 0.10 | 69 | 1011.3 |
| 20260904054535 | 69 | 96 | 3.0 | 8.0 | 0.00 | 0.10 | 0.10 | 69 | 1011.3 |
| 20260904054018 | 69 | 60 | 3.0 | 8.0 | 0.00 | 0.10 | 0.10 | 71 | 1011.2 |
| 20260904053519 | 69 | 10 | 2.0 | 8.0 | 0.00 | 0.10 | 0.10 | 71 | 1011.4 |
| 20260904053036 | 68 | 28 | 3.0 | 8.0 | 0.00 | 0.10 | 0.10 | 72 | 1011.5 |
| 20260904052517 | 67 | 346 | 2.0 | 9.0 | 0.00 | 0.10 | 0.10 | 72 | 1011.4 |
| 20260904052021 | 67 | 80 | 3.0 | 9.0 | 0.00 | 0.10 | 0.10 | 72 | 1011.6 |
| 20260904051533 | 67 | 0 | 1.0 | 8.0 | 0.00 | 0.10 | 0.10 | 72 | 1011.8 |
| 20260904051017 | 67 | 9 | 2.0 | 8.0 | 0.00 | 0.10 | 0.10 | 73 | 1011.9 |
| 20260904050517 | 66 | 355 | 2.0 | 6.0 | 0.00 | 0.10 | 0.10 | 73 | 1012.0 |
| 20260904050036 | 66 | 351 | 3.0 | 6.0 | 0.00 | 0.10 | 0.10 | 73 | 1012.1 |
| 20260904045518 | 66 | 342 | 2.0 | 6.0 | 0.00 | 0.10 | 0.10 | 73 | 1012.0 |
| 20260904045021 | 66 | 346 | 2.0 | 6.0 | 0.00 | 0.10 | 0.10 | 73 | 1012.1 |
| 20260904044532 | 65 | 334 | 2.0 | 5.0 | 0.00 | 0.10 | 0.10 | 73 | 1012.2 |
| 20260904044018 | 65 | 360 | 1.0 | 4.0 | 0.00 | 0.10 | 0.10 | 72 | 1012.4 |
| 20260904043515 | 65 | 0 | 0.0 | 6.0 | 0.00 | 0.10 | 0.10 | 72 | 1012.4 |
| 20260904043033 | 65 | 13 | 2.0 | 8.0 | 0.00 | 0.10 | 0.10 | 72 | 1012.3 |
| 20260904042518 | 65 | 50 | 2.0 | 8.0 | 0.00 | 0.10 | 0.10 | 72 | 1012.4 |
| 20260904042016 | 65 | 340 | 2.0 | 8.0 | 0.00 | 0.10 | 0.10 | 73 | 1012.2 |
| 20260904041536 | 65 | 338 | 2.0 | 8.0 | 0.00 | 0.10 | 0.10 | 72 | 1012.5 |
| 20260904041023 | 65 | 0 | 2.0 | 6.0 | 0.00 | 0.10 | 0.10 | 73 | 1012.7 |
| 20260904040519 | 65 | 344 | 1.0 | 5.0 | 0.00 | 0.10 | 0.10 | 73 | 1012.7 |
| 20260904040031 | 65 | 342 | 2.0 | 6.0 | 0.00 | 0.10 | 0.10 | 73 | 1012.9 |
| 20260904035519 | 65 | 14 | 2.0 | 10.0 | 0.00 | 0.10 | 0.10 | 73 | 1013.0 |
| 20260904035018 | 65 | 19 | 3.0 | 10.0 | 0.00 | 0.10 | 0.10 | 73 | 1013.2 |
| 20260904034535 | 65 | 355 | 2.0 | 9.0 | 0.00 | 0.10 | 0.10 | 74 | 1013.2 |
| 20260904034018 | 65 | 360 | 2.0 | 9.0 | 0.00 | 0.10 | 0.10 | 75 | 1013.3 |
| 20260904033516 | 65 | 26 | 3.0 | 9.0 | 0.00 | 0.10 | 0.10 | 76 | 1013.7 |
| 20260904033127 | 64 | 60 | 4.0 | 9.0 | 0.00 | 0.10 | 0.10 | 77 | 1013.5 |
| 20260904032517 | 64 | 72 | 4.0 | 9.0 | 0.03 | 0.10 | 0.10 | 78 | 1013.7 |
| 20260904032019 | 64 | 96 | 3.0 | 10.0 | 0.04 | 0.10 | 0.10 | 80 | 1013.8 |
| 20260904031534 | 63 | 59 | 3.0 | 10.0 | 0.04 | 0.10 | 0.10 | 80 | 1014.0 |
| 20260904031020 | 63 | 11 | 3.0 | 9.0 | 0.04 | 0.10 | 0.10 | 82 | 1014.2 |
| 20260904030520 | 62 | 351 | 3.0 | 9.0 | 0.04 | 0.10 | 0.10 | 83 | 1014.1 |
| 20260904030033 | 62 | 142 | 3.0 | 9.0 | 0.04 | 0.10 | 0.10 | 84 | 1014.4 |
| 20260904025519 | 61 | 94 | 3.0 | 7.0 | 0.05 | 0.10 | 0.10 | 84 | 1014.3 |
| 20260904025016 | 61 | 120 | 1.0 | 9.0 | 0.07 | 0.10 | 0.10 | 83 | 1014.4 |
| 20260904024534 | 60 | 121 | 3.0 | 9.0 | 0.07 | 0.10 | 0.10 | 83 | 1014.4 |
| 20260904024021 | 60 | 79 | 2.0 | 7.0 | 0.08 | 0.10 | 0.10 | 82 | 1014.5 |
| 20260904023516 | 60 | 78 | 2.0 | 7.0 | 0.09 | 0.10 | 0.10 | 81 | 1014.8 |
| 20260904023039 | 60 | 80 | 2.0 | 7.0 | 0.09 | 0.10 | 0.10 | 81 | 1015.2 |
| 20260904022516 | 60 | 86 | 1.0 | 4.0 | 0.07 | 0.07 | 0.07 | 80 | 1015.7 |
| 20260904022019 | 60 | 86 | 0.0 | 3.0 | 0.05 | 0.06 | 0.05 | 79 | 1016.7 |
| 20260904021539 | 60 | 86 | 1.0 | 3.0 | 0.05 | 0.06 | 0.05 | 79 | 1016.2 |
| 20260904021022 | 60 | 86 | 0.0 | 2.0 | 0.05 | 0.06 | 0.05 | 78 | 1016.6 |
| 20260904020520 | 60 | 0 | 0.0 | 3.0 | 0.05 | 0.06 | 0.05 | 78 | 1017.3 |
| 20260904020032 | 60 | 86 | 0.0 | 6.0 | 0.05 | 0.06 | 0.05 | 78 | 1016.8 |
| 20260904015515 | 60 | 86 | 2.0 | 8.0 | 0.04 | 0.05 | 0.04 | 77 | 1016.2 |
| 20260904015020 | 60 | 49 | 3.0 | 9.0 | 0.03 | 0.03 | 0.03 | 76 | 1016.1 |
| 20260904014545 | 60 | 28 | 3.0 | 9.0 | 0.02 | 0.03 | 0.02 | 75 | 1016.4 |
| 20260904014018 | 60 | 57 | 2.0 | 5.0 | 0.01 | 0.02 | 0.01 | 75 | 1016.7 |
| 20260904013515 | 60 | 0 | 0.0 | 5.0 | 0.00 | 0.01 | 0.00 | 75 | 1017.1 |
| 20260904013039 | 60 | 59 | 1.0 | 4.0 | 0.00 | 0.00 | 0.00 | 74 | 1017.3 |
| 20260904012516 | 60 | 58 | 1.0 | 9.0 | 0.00 | 0.00 | 0.00 | 74 | 1017.1 |
| 20260904012019 | 60 | 62 | 2.0 | 9.0 | 0.00 | 0.00 | 0.00 | 74 | 1017.2 |
| 20260904011534 | 61 | 45 | 3.0 | 8.0 | 0.00 | 0.00 | 0.00 | 74 | 1017.2 |
| 20260904011015 | 61 | 48 | 3.0 | 9.0 | 0.00 | 0.00 | 0.00 | 73 | 1017.0 |
| 20260904010516 | 61 | 42 | 4.0 | 10.0 | 0.00 | 0.00 | 0.00 | 73 | 1017.1 |
| 20260904010034 | 61 | 355 | 3.0 | 10.0 | 0.00 | 0.00 | 0.00 | 72 | 1017.3 |
| 20260904005518 | 62 | 34 | 3.0 | 10.0 | 0.00 | 0.00 | 0.00 | 71 | 1017.7 |
| 20260904005019 | 62 | 19 | 4.0 | 11.0 | 0.00 | 0.00 | 0.00 | 70 | 1017.6 |
| 20260904004537 | 62 | 22 | 3.0 | 11.0 | 0.00 | 0.00 | 0.00 | 70 | 1017.7 |
| 20260904004016 | 62 | 318 | 4.0 | 11.0 | 0.00 | 0.00 | 0.00 | 69 | 1018.2 |
| 20260904003519 | 62 | 65 | 5.0 | 10.0 | 0.00 | 0.00 | 0.00 | 69 | 1018.2 |
| 20260904003034 | 62 | 43 | 3.0 | 10.0 | 0.00 | 0.00 | 0.00 | 70 | 1018.3 |
| 20260904002518 | 63 | 22 | 4.0 | 10.0 | 0.00 | 0.00 | 0.00 | 70 | 1018.4 |
| 20260904002016 | 63 | 51 | 3.0 | 10.0 | 0.00 | 0.00 | 0.00 | 70 | 1018.3 |
| 20260904001533 | 63 | 24 | 4.0 | 10.0 | 0.00 | 0.00 | 0.00 | 69 | 1018.1 |
| 20260904001015 | 63 | 59 | 3.0 | 9.0 | 0.00 | 0.00 | 0.00 | 70 | 1018.2 |
| 20260904000516 | 63 | 355 | 1.0 | 8.0 | 0.00 | 0.00 | 0.00 | 70 | 1017.8 |
| 20260904000036 | 63 | 348 | 2.0 | 7.0 | 0.00 | 0.00 | 0.00 | 70 | 1017.9 |
| 20260903235518 | 63 | 360 | 2.0 | 8.0 | 0.00 | 0.00 | 0.00 | 71 | 1017.7 |
| 20260903235019 | 62 | 355 | 3.0 | 8.0 | 0.00 | 0.00 | 0.00 | 71 | 1017.6 |
| 20260903234535 | 62 | 355 | 2.0 | 8.0 | 0.00 | 0.00 | 0.00 | 71 | 1017.7 |
| 20260903234019 | 62 | 15 | 2.0 | 8.0 | 0.00 | 0.00 | 0.00 | 72 | 1017.7 |
| 20260903233521 | 61 | 20 | 3.0 | 10.0 | 0.00 | 0.00 | 0.00 | 72 | 1017.7 |
| 20260903233033 | 61 | 40 | 3.0 | 10.0 | 0.00 | 0.00 | 0.00 | 72 | 1017.7 |
| 20260903232518 | 61 | 81 | 3.0 | 10.0 | 0.00 | 0.00 | 0.00 | 73 | 1017.7 |
| 20260903232018 | 61 | 46 | 2.0 | 8.0 | 0.00 | 0.00 | 0.00 | 73 | 1017.8 |
| 20260903231534 | 60 | 26 | 2.0 | 8.0 | 0.00 | 0.00 | 0.00 | 73 | 1018.1 |
| 20260903231017 | 60 | 15 | 1.0 | 8.0 | 0.00 | 0.00 | 0.00 | 74 | 1018.2 |
| 20260903230519 | 60 | 78 | 3.0 | 8.0 | 0.00 | 0.00 | 0.00 | 74 | 1018.1 |
| 20260903230035 | 60 | 355 | 3.0 | 7.0 | 0.00 | 0.00 | 0.00 | 74 | 1018.0 |
| 20260903225523 | 59 | 53 | 2.0 | 8.0 | 0.00 | 0.00 | 0.00 | 74 | 1018.1 |
| 20260903225023 | 59 | 37 | 3.0 | 8.0 | 0.00 | 0.00 | 0.00 | 75 | 1018.0 |
| 20260903224534 | 59 | 9 | 2.0 | 7.0 | 0.00 | 0.00 | 0.00 | 76 | 1017.9 |
| 20260903224018 | 59 | 57 | 1.0 | 8.0 | 0.00 | 0.00 | 0.00 | 76 | 1017.9 |
| 20260903223518 | 59 | 70 | 3.0 | 8.0 | 0.00 | 0.00 | 0.00 | 76 | 1018.0 |
| 20260903223034 | 58 | 90 | 1.0 | 7.0 | 0.00 | 0.00 | 0.00 | 76 | 1018.1 |
| 20260903222523 | 58 | 0 | 1.0 | 7.0 | 0.00 | 0.00 | 0.00 | 76 | 1018.0 |
| 20260903222020 | 58 | 18 | 2.0 | 7.0 | 0.00 | 0.00 | 0.00 | 76 | 1018.1 |
| 20260903221537 | 58 | 19 | 1.0 | 5.0 | 0.00 | 0.00 | 0.00 | 77 | 1018.2 |
| 20260903221019 | 58 | 22 | 2.0 | 5.0 | 0.00 | 0.00 | 0.00 | 77 | 1018.3 |
| 20260903220520 | 58 | 26 | 2.0 | 7.0 | 0.00 | 0.00 | 0.00 | 77 | 1018.2 |
| 20260903220042 | 58 | 45 | 2.0 | 7.0 | 0.00 | 0.00 | 0.00 | 78 | 1018.0 |
| 20260903215522 | 58 | 27 | 2.0 | 5.0 | 0.00 | 0.00 | 0.00 | 78 | 1017.8 |
| 20260903215015 | 57 | 360 | 1.0 | 6.0 | 0.00 | 0.00 | 0.00 | 78 | 1017.8 |
| 20260903214536 | 57 | 360 | 2.0 | 6.0 | 0.00 | 0.00 | 0.00 | 78 | 1018.0 |
| 20260903214023 | 57 | 360 | 2.0 | 5.0 | 0.00 | 0.00 | 0.00 | 78 | 1018.0 |
| 20260903213520 | 57 | 360 | 0.0 | 4.0 | 0.00 | 0.00 | 0.00 | 78 | 1018.0 |
| 20260903213036 | 57 | 360 | 1.0 | 11.0 | 0.00 | 0.00 | 0.00 | 78 | 1017.9 |
| 20260903212520 | 57 | 0 | 2.0 | 11.0 | 0.00 | 0.00 | 0.00 | 78 | 1017.6 |
| 20260903212019 | 57 | 360 | 1.0 | 8.0 | 0.00 | 0.00 | 0.00 | 78 | 1017.4 |
| 20260903211535 | 57 | 360 | 2.0 | 8.0 | 0.00 | 0.00 | 0.00 | 78 | 1017.4 |
| 20260903211018 | 57 | 96 | 2.0 | 4.0 | 0.00 | 0.00 | 0.00 | 78 | 1017.3 |
| 20260903210519 | 57 | 0 | 0.0 | 3.0 | 0.00 | 0.00 | 0.00 | 78 | 1017.6 |
| 20260903210034 | 57 | 100 | 0.0 | 5.0 | 0.00 | 0.00 | 0.00 | 79 | 1017.5 |
| 20260903205516 | 57 | 360 | 1.0 | 5.0 | 0.00 | 0.00 | 0.00 | 79 | 1017.6 |
| 20260903205018 | 56 | 360 | 1.0 | 6.0 | 0.00 | 0.00 | 0.00 | 79 | 1017.9 |
| 20260903204534 | 56 | 360 | 1.0 | 6.0 | 0.00 | 0.00 | 0.00 | 79 | 1017.8 |
| 20260903204018 | 56 | 0 | 1.0 | 8.0 | 0.00 | 0.00 | 0.00 | 79 | 1017.8 |
| 20260903203517 | 56 | 0 | 1.0 | 8.0 | 0.00 | 0.00 | 0.00 | 80 | 1017.9 |
| 20260903203033 | 56 | 118 | 2.0 | 8.0 | 0.00 | 0.00 | 0.00 | 80 | 1018.0 |
| 20260903202520 | 56 | 96 | 2.0 | 7.0 | 0.00 | 0.00 | 0.00 | 80 | 1017.8 |
| 20260903202019 | 56 | 21 | 1.0 | 7.0 | 0.00 | 0.00 | 0.00 | 80 | 1018.1 |
| 20260903201535 | 56 | 27 | 0.0 | 5.0 | 0.00 | 0.00 | 0.00 | 81 | 1018.3 |
| 20260903201023 | 56 | 25 | 1.0 | 5.0 | 0.00 | 0.00 | 0.00 | 81 | 1018.3 |
| 20260903200518 | 56 | 13 | 1.0 | 8.0 | 0.00 | 0.00 | 0.00 | 81 | 1018.4 |
| 20260903200034 | 56 | 13 | 2.0 | 8.0 | 0.00 | 0.00 | 0.00 | 81 | 1018.3 |
| 20260903195516 | 55 | 17 | 2.0 | 5.0 | 0.00 | 0.00 | 0.00 | 81 | 1018.3 |
| 20260903195020 | 55 | 0 | 1.0 | 4.0 | 0.00 | 0.00 | 0.00 | 81 | 1018.5 |
| 20260903194534 | 55 | 17 | 2.0 | 5.0 | 0.00 | 0.00 | 0.00 | 81 | 1018.5 |
| 20260903194017 | 55 | 17 | 1.0 | 8.0 | 0.00 | 0.00 | 0.00 | 82 | 1018.5 |
| 20260903193518 | 55 | 16 | 2.0 | 8.0 | 0.00 | 0.00 | 0.00 | 82 | 1018.4 |
| 20260903193035 | 55 | 11 | 2.0 | 8.0 | 0.00 | 0.00 | 0.00 | 82 | 1018.6 |
| 20260903192519 | 55 | 18 | 2.0 | 5.0 | 0.00 | 0.00 | 0.00 | 82 | 1018.7 |
| 20260903192019 | 55 | 18 | 2.0 | 5.0 | 0.00 | 0.00 | 0.00 | 82 | 1018.8 |
| 20260903191532 | 55 | 26 | 1.0 | 8.0 | 0.00 | 0.00 | 0.00 | 82 | 1018.9 |
| 20260903191019 | 55 | 0 | 2.0 | 8.0 | 0.00 | 0.00 | 0.00 | 82 | 1018.9 |
| 20260903190517 | 55 | 34 | 2.0 | 6.0 | 0.00 | 0.00 | 0.00 | 82 | 1018.7 |
| 20260903190037 | 55 | 43 | 1.0 | 6.0 | 0.00 | 0.00 | 0.00 | 82 | 1018.8 |
| 20260903185515 | 55 | 49 | 1.0 | 6.0 | 0.00 | 0.00 | 0.00 | 82 | 1018.6 |
| 20260903185018 | 55 | 59 | 2.0 | 7.0 | 0.00 | 0.00 | 0.00 | 81 | 1018.3 |
| 20260903184537 | 55 | 58 | 2.0 | 7.0 | 0.00 | 0.00 | 0.00 | 81 | 1018.1 |
| 20260903184016 | 55 | 83 | 2.0 | 6.0 | 0.00 | 0.00 | 0.00 | 81 | 1018.2 |
| 20260903183520 | 54 | 65 | 0.0 | 5.0 | 0.00 | 0.00 | 0.00 | 80 | 1018.6 |
| 20260903183035 | 55 | 66 | 0.0 | 8.0 | 0.00 | 0.00 | 0.00 | 80 | 1018.7 |
| 20260903182522 | 54 | 74 | 1.0 | 8.0 | 0.00 | 0.00 | 0.00 | 80 | 1018.2 |
| 20260903182021 | 54 | 257 | 1.0 | 6.0 | 0.00 | 0.00 | 0.00 | 80 | 1018.2 |
| 20260903181536 | 55 | 258 | 0.0 | 3.0 | 0.00 | 0.00 | 0.00 | 79 | 1018.5 |
| 20260903181020 | 55 | 0 | 0.0 | 2.0 | 0.00 | 0.00 | 0.00 | 79 | 1018.9 |
| 20260903180519 | 55 | 0 | 0.0 | 0.0 | 0.00 | 0.00 | 0.00 | 79 | 1019.2 |
| 20260903180045 | 55 | 0 | 0.0 | 0.0 | 0.00 | 0.00 | 0.00 | 78 | 1019.3 |
| 20260903175518 | 55 | 0 | 0.0 | 0.0 | 0.00 | 0.00 | 0.00 | 78 | 1019.4 |
| 20260903175019 | 55 | 0 | 0.0 | 0.0 | 0.00 | 0.00 | 0.00 | 78 | 1019.4 |
| 20260903174536 | 55 | 0 | 0.0 | 0.0 | 0.00 | 0.00 | 0.00 | 78 | 1019.3 |
| 20260903174018 | 55 | 0 | 0.0 | 0.0 | 0.00 | 0.00 | 0.00 | 78 | 1019.3 |
| 20260903173520 | 56 | 0 | 0.0 | 0.0 | 0.00 | 0.00 | 0.00 | 78 | 1019.3 |
| 20260903173034 | 56 | 0 | 0.0 | 0.0 | 0.00 | 0.00 | 0.00 | 78 | 1019.4 |
| 20260903172518 | 56 | 0 | 0.0 | 2.0 | 0.00 | 0.00 | 0.00 | 78 | 1019.7 |
| 20260903172017 | 56 | 0 | 0.0 | 4.0 | 0.00 | 0.00 | 0.00 | 77 | 1019.8 |
| 20260903171543 | 56 | 0 | 1.0 | 4.0 | 0.00 | 0.00 | 0.00 | 77 | 1020.0 |
| 20260903171019 | 56 | 256 | 1.0 | 4.0 | 0.00 | 0.00 | 0.00 | 77 | 1020.2 |
| 20260903170516 | 56 | 244 | 0.0 | 4.0 | 0.00 | 0.00 | 0.00 | 77 | 1020.2 |
| 20260903170043 | 56 | 0 | 0.0 | 2.0 | 0.00 | 0.00 | 0.00 | 76 | 1020.1 |
| 20260903165522 | 56 | 0 | 0.0 | 2.0 | 0.00 | 0.00 | 0.00 | 76 | 1020.1 |
| 20260903165018 | 56 | 0 | 0.0 | 1.0 | 0.00 | 0.00 | 0.00 | 76 | 1020.1 |
| 20260903164542 | 56 | 0 | 0.0 | 1.0 | 0.00 | 0.00 | 0.00 | 76 | 1020.1 |
| 20260903164019 | 56 | 0 | 0.0 | 1.0 | 0.00 | 0.00 | 0.00 | 75 | 1020.1 |
| 20260903163517 | 56 | 0 | 0.0 | 1.0 | 0.00 | 0.00 | 0.00 | 75 | 1020.3 |
| 20260903163036 | 56 | 0 | 0.0 | 0.0 | 0.00 | 0.00 | 0.00 | 75 | 1020.4 |
| 20260903162515 | 56 | 0 | 0.0 | 0.0 | 0.00 | 0.00 | 0.00 | 75 | 1020.5 |
| 20260903162018 | 56 | 0 | 0.0 | 0.0 | 0.00 | 0.00 | 0.00 | 75 | 1020.6 |
| 20260903161533 | 56 | 0 | 0.0 | 0.0 | 0.00 | 0.00 | 0.00 | 74 | 1020.5 |
| 20260903161019 | 56 | 0 | 0.0 | 0.0 | 0.00 | 0.00 | 0.00 | 74 | 1020.4 |
| 20260903160522 | 56 | 0 | 0.0 | 0.0 | 0.00 | 0.00 | 0.00 | 74 | 1020.3 |
| 20260903160038 | 56 | 0 | 0.0 | 2.0 | 0.00 | 0.00 | 0.00 | 74 | 1020.4 |
| 20260903155518 | 56 | 0 | 0.0 | 2.0 | 0.00 | 0.00 | 0.00 | 74 | 1020.2 |
| 20260903155020 | 56 | 0 | 0.0 | 3.0 | 0.00 | 0.00 | 0.00 | 74 | 1020.3 |
| 20260903154538 | 56 | 0 | 0.0 | 3.0 | 0.00 | 0.00 | 0.00 | 74 | 1020.3 |
| 20260903154020 | 56 | 0 | 0.0 | 0.0 | 0.00 | 0.00 | 0.00 | 74 | 1020.5 |
| 20260903153520 | 56 | 0 | 0.0 | 0.0 | 0.00 | 0.00 | 0.00 | 74 | 1020.5 |
| 20260903153032 | 56 | 0 | 0.0 | 0.0 | 0.00 | 0.00 | 0.00 | 74 | 1020.6 |
| 20260903152516 | 56 | 0 | 0.0 | 2.0 | 0.00 | 0.00 | 0.00 | 74 | 1020.7 |
| 20260903152016 | 56 | 0 | 0.0 | 2.0 | 0.00 | 0.00 | 0.00 | 74 | 1020.8 |
| 20260903151537 | 56 | 0 | 0.0 | 2.0 | 0.00 | 0.00 | 0.00 | 74 | 1020.9 |
| 20260903151018 | 56 | 0 | 0.0 | 1.0 | 0.00 | 0.00 | 0.00 | 73 | 1020.9 |
| 20260903150523 | 56 | 0 | 0.0 | 1.0 | 0.00 | 0.00 | 0.00 | 73 | 1020.9 |
| 20260903150057 | 56 | 0 | 0.0 | 1.0 | 0.00 | 0.00 | 0.00 | 73 | 1021.0 |
| 20260903145517 | 56 | 0 | 0.0 | 2.0 | 0.00 | 0.00 | 0.00 | 73 | 1021.1 |
| 20260903145017 | 56 | 0 | 0.0 | 2.0 | 0.00 | 0.00 | 0.00 | 73 | 1021.1 |
| 20260903144537 | 56 | 0 | 0.0 | 2.0 | 0.00 | 0.00 | 0.00 | 73 | 1021.2 |
| 20260903144022 | 56 | 0 | 0.0 | 1.0 | 0.00 | 0.00 | 0.00 | 73 | 1021.3 |
| 20260903143519 | 56 | 0 | 0.0 | 1.0 | 0.00 | 0.00 | 0.00 | 73 | 1021.4 |
| 20260903143035 | 56 | 0 | 0.0 | 0.0 | 0.00 | 0.00 | 0.00 | 73 | 1021.4 |
| 20260903142518 | 56 | 0 | 0.0 | 1.0 | 0.00 | 0.00 | 0.00 | 73 | 1021.5 |
| 20260903142022 | 56 | 0 | 0.0 | 2.0 | 0.00 | 0.00 | 0.00 | 73 | 1021.4 |
| 20260903141536 | 56 | 0 | 0.0 | 2.0 | 0.00 | 0.00 | 0.00 | 73 | 1021.5 |
| 20260903141018 | 56 | 0 | 0.0 | 2.0 | 0.00 | 0.00 | 0.00 | 72 | 1021.6 |
| 20260903140518 | 56 | 0 | 0.0 | 0.0 | 0.00 | 0.00 | 0.00 | 72 | 1021.6 |
| 20260903140039 | 56 | 0 | 0.0 | 0.0 | 0.00 | 0.00 | 0.00 | 72 | 1021.6 |
| 20260903135516 | 56 | 0 | 0.0 | 0.0 | 0.00 | 0.00 | 0.00 | 72 | 1021.6 |
| 20260903135016 | 56 | 0 | 0.0 | 0.0 | 0.00 | 0.00 | 0.00 | 72 | 1021.7 |
| 20260903134531 | 56 | 0 | 0.0 | 0.0 | 0.00 | 0.00 | 0.00 | 72 | 1021.9 |
| 20260903134021 | 56 | 0 | 0.0 | 0.0 | 0.00 | 0.00 | 0.00 | 72 | 1021.9 |
| 20260903133515 | 56 | 0 | 0.0 | 0.0 | 0.00 | 0.00 | 0.00 | 72 | 1021.8 |
| 20260903133038 | 56 | 0 | 0.0 | 0.0 | 0.00 | 0.00 | 0.00 | 72 | 1022.0 |
| 20260903132522 | 56 | 0 | 0.0 | 0.0 | 0.00 | 0.00 | 0.00 | 72 | 1021.9 |
| 20260903132020 | 56 | 0 | 0.0 | 0.0 | 0.00 | 0.00 | 0.00 | 72 | 1022.1 |
| 20260903131536 | 56 | 0 | 0.0 | 0.0 | 0.00 | 0.00 | 0.00 | 72 | 1022.0 |
| 20260903131019 | 56 | 0 | 0.0 | 0.0 | 0.00 | 0.00 | 0.00 | 72 | 1022.1 |
| 20260903130519 | 56 | 0 | 0.0 | 0.0 | 0.00 | 0.00 | 0.00 | 72 | 1022.2 |
| 20260903130035 | 56 | 0 | 0.0 | 0.0 | 0.00 | 0.00 | 0.00 | 72 | 1022.2 |
| 20260903125518 | 56 | 0 | 0.0 | 0.0 | 0.00 | 0.00 | 0.00 | 72 | 1022.3 |
| 20260903125016 | 56 | 0 | 0.0 | 0.0 | 0.00 | 0.00 | 0.00 | 72 | 1022.3 |
| 20260903124543 | 56 | 0 | 0.0 | 0.0 | 0.00 | 0.00 | 0.00 | 72 | 1022.4 |
| 20260903124019 | 56 | 0 | 0.0 | 0.0 | 0.00 | 0.00 | 0.00 | 72 | 1022.3 |
| 20260903123522 | 56 | 0 | 0.0 | 0.0 | 0.00 | 0.00 | 0.00 | 72 | 1022.4 |
| 20260903123036 | 56 | 0 | 0.0 | 0.0 | 0.00 | 0.00 | 0.00 | 72 | 1022.5 |
| 20260903122516 | 56 | 0 | 0.0 | 0.0 | 0.00 | 0.00 | 0.00 | 72 | 1022.6 |
| 20260903122016 | 56 | 0 | 0.0 | 0.0 | 0.00 | 0.00 | 0.00 | 72 | 1022.6 |
| 20260903121532 | 56 | 0 | 0.0 | 0.0 | 0.00 | 0.00 | 0.00 | 72 | 1022.9 |
| 20260903121017 | 56 | 0 | 0.0 | 0.0 | 0.00 | 0.00 | 0.00 | 71 | 1022.9 |
| 20260903120522 | 56 | 0 | 0.0 | 0.0 | 0.00 | 0.00 | 0.00 | 71 | 1022.8 |
| 20260903120031 | 56 | 0 | 0.0 | 0.0 | 0.00 | 0.00 | 0.00 | 71 | 1022.9 |
| 20260903115515 | 56 | 0 | 0.0 | 0.0 | 0.00 | 0.00 | 0.00 | 71 | 1023.0 |
| 20260903115019 | 56 | 0 | 0.0 | 0.0 | 0.00 | 0.00 | 0.00 | 71 | 1022.9 |
| 20260903114535 | 56 | 0 | 0.0 | 0.0 | 0.00 | 0.00 | 0.00 | 71 | 1023.0 |
| 20260903114021 | 56 | 0 | 0.0 | 0.0 | 0.00 | 0.00 | 0.00 | 70 | 1023.0 |
| 20260903113519 | 56 | 0 | 0.0 | 0.0 | 0.00 | 0.00 | 0.00 | 70 | 1023.0 |
| 20260903113033 | 56 | 0 | 0.0 | 0.0 | 0.00 | 0.00 | 0.00 | 70 | 1022.8 |
| 20260903112519 | 56 | 0 | 0.0 | 0.0 | 0.00 | 0.00 | 0.00 | 70 | 1022.8 |
| 20260903112019 | 56 | 0 | 0.0 | 0.0 | 0.00 | 0.00 | 0.00 | 70 | 1022.8 |
| 20260903111533 | 56 | 0 | 0.0 | 0.0 | 0.00 | 0.00 | 0.00 | 69 | 1022.8 |
| 20260903111018 | 57 | 0 | 0.0 | 0.0 | 0.00 | 0.00 | 0.00 | 69 | 1022.7 |
| 20260903110517 | 57 | 0 | 0.0 | 0.0 | 0.00 | 0.00 | 0.00 | 69 | 1022.7 |
| 20260903110036 | 57 | 0 | 0.0 | 0.0 | 0.00 | 0.00 | 0.00 | 68 | 1022.6 |
| 20260903105520 | 57 | 0 | 0.0 | 0.0 | 0.00 | 0.00 | 0.00 | 68 | 1022.6 |
| 20260903105021 | 57 | 0 | 0.0 | 0.0 | 0.00 | 0.00 | 0.00 | 68 | 1022.6 |
| 20260903104535 | 57 | 0 | 0.0 | 0.0 | 0.00 | 0.00 | 0.00 | 68 | 1022.6 |
| 20260903104022 | 57 | 0 | 0.0 | 0.0 | 0.00 | 0.00 | 0.00 | 67 | 1022.4 |
| 20260903103516 | 57 | 0 | 0.0 | 0.0 | 0.00 | 0.00 | 0.00 | 67 | 1022.5 |
| 20260903103032 | 57 | 0 | 0.0 | 0.0 | 0.00 | 0.00 | 0.00 | 67 | 1022.4 |
| 20260903102517 | 57 | 0 | 0.0 | 0.0 | 0.00 | 0.00 | 0.00 | 67 | 1022.2 |
| 20260903102019 | 58 | 0 | 0.0 | 0.0 | 0.00 | 0.00 | 0.00 | 66 | 1022.2 |
| 20260903101536 | 58 | 0 | 0.0 | 0.0 | 0.00 | 0.00 | 0.00 | 67 | 1022.2 |
| 20260903101017 | 58 | 0 | 0.0 | 0.0 | 0.00 | 0.00 | 0.00 | 67 | 1022.0 |
| 20260903100519 | 58 | 0 | 0.0 | 0.0 | 0.00 | 0.00 | 0.00 | 67 | 1022.0 |
| 20260903100036 | 58 | 0 | 0.0 | 0.0 | 0.00 | 0.00 | 0.00 | 67 | 1021.9 |
| 20260903095525 | 58 | 0 | 0.0 | 0.0 | 0.00 | 0.00 | 0.00 | 67 | 1021.8 |
| 20260903095019 | 58 | 0 | 0.0 | 0.0 | 0.00 | 0.00 | 0.00 | 67 | 1021.8 |
| 20260903094534 | 59 | 0 | 0.0 | 0.0 | 0.00 | 0.00 | 0.00 | 67 | 1021.8 |
| 20260903094016 | 59 | 0 | 0.0 | 0.0 | 0.00 | 0.00 | 0.00 | 67 | 1021.8 |
| 20260903093519 | 59 | 0 | 0.0 | 0.0 | 0.00 | 0.00 | 0.00 | 67 | 1021.8 |
| 20260903093035 | 59 | 0 | 0.0 | 0.0 | 0.00 | 0.00 | 0.00 | 67 | 1021.9 |
| 20260903092520 | 59 | 0 | 0.0 | 0.0 | 0.00 | 0.00 | 0.00 | 66 | 1021.9 |
| 20260903092018 | 59 | 0 | 0.0 | 0.0 | 0.00 | 0.00 | 0.00 | 66 | 1021.7 |
| 20260903091534 | 59 | 0 | 0.0 | 0.0 | 0.00 | 0.00 | 0.00 | 66 | 1021.7 |